Probability
0 0 0 0 0 0 0 0 0 0 0 0 0 0 0 0 0 0 0 0 0 0 0 0 0 0 0 0 2 8 19 33 42 45 46 44 36 27 16 8 4 1 0 0
0 0 0 0 0 0 0 0 0 0 0 0 0 0 0 0 0 0 0 0 0 0 0 0 0 0 0 0 1 4 11 22 34 42 45 44 36 27 18 12 8 5 2 1
0 0 0 0 0 0 0 0 0 0 0 0 0 0 0 0 0 0 0 0 0 0 0 0 0 0 0 0 0 1 3 9 19 31 38 38 32 25 20 17 16 12 6 3
0 0 0 0 0 0 0 0 0 0 0 0 0 0 0 0 0 0 0 0 0 0 0 0 0 0 0 0 0 0 1 3 9 17 27 33 33 29 23 19 18 16 10 5
0 0 0 0 0 0 0 0 0 0 0 0 0 0 0 0 0 0 0 0 0 0 0 0 0 0 0 0 0 0 0 2 5 10 18 28 34 32 22 15 14 13 9 6
0 0 0 0 0 0 0 0 0 0 0 0 0 0 0 0 0 0 0 0 0 0 0 0 0 0 0 0 0 0 0 1 3 7 12 19 25 24 17 11 10 10 7 4
0 0 0 0 0 0 0 0 0 0 0 0 0 0 0 0 0 0 0 0 0 0 0 0 0 0 0 0 0 0 0 0 2 5 9 11 14 15 13 12 11 11 8 4
0 0 0 0 0 0 0 0 0 0 0 0 0 0 0 0 0 0 0 0 0 0 0 0 0 0 0 0 0 0 0 0 1 4 8 8 7 7 8 10 12 11 8 4
0 0 0 0 0 0 0 0 0 0 0 0 0 0 0 0 0 0 0 0 0 0 0 0 0 0 0 0 0 0 0 0 0 2 5 6 4 3 4 7 9 8 5 2
0 0 0 0 0 0 0 0 0 0 0 0 0 0 0 0 0 0 0 0 0 0 0 0 0 0 0 0 0 0 0 0 0 1 2 3 3 2 2 4 5 4 2 1
0 0 0 0 0 0 0 0 0 0 0 0 0 0 0 0 0 0 0 0 0 0 0 0 0 0 0 0 0 0 0 0 0 0 0 0 1 1 1 2 2 1 0 0
0 0 0 0 0 0 0 0 0 0 0 0 0 0 0 0 0 0 0 0 0 0 0 0 0 0 0 0 0 0 0 0 0 0 0 0 0 0 0 1 1 0 0 0
0 0 0 0 0 0 0 0 0 0 0 0 0 0 0 0 0 0 0 0 0 0 0 0 0 0 0 0 0 0 0 0 0 0 0 0 0 0 0 0 0 0 0 0
0 0 0 0 0 0 0 0 0 0 0 0 0 0 0 0 0 0 0 0 0 0 0 0 0 0 0 0 0 0 0 0 0 0 0 0 0 0 0 0 0 0 0 0
0 0 0 0 0 0 0 0 0 0 0 0 0 0 0 0 0 0 0 0 0 0 0 0 0 0 0 0 0 0 0 0 0 0 0 0 0 0 0 0 0 0 0 0
0 0 0 0 0 0 0 0 0 0 0 0 0 0 0 0 0 0 0 0 0 0 0 0 0 0 0 0 0 0 0 0 0 0 0 0 0 0 0 0 0 0 0 0
0 0 0 0 0 0 0 0 0 0 0 0 0 0 0 0 0 0 0 0 0 0 0 0 0 0 0 0 0 0 0 0 0 0 0 0 0 0 0 0 0 0 0 0
0 0 0 0 0 0 0 0 0 0 0 0 0 0 0 0 0 0 0 0 0 0 0 0 0 0 0 0 0 0 0 0 0 0 0 0 0 0 0 0 0 0 0 0
0 0 0 0 0 0 0 0 0 0 0 0 0 0 0 0 0 0 0 0 0 0 0 0 0 0 0 0 0 0 0 0 0 0 0 0 0 0 0 0 0 0 0 0
0 0 0 0 0 0 0 0 0 0 0 0 0 0 0 0 0 0 0 0 0 0 0 0 0 0 0 0 0 0 0 0 0 0 0 0 0 0 0 0 0 0 0 0
0 0 0 0 0 0 0 0 0 0 0 0 0 0 0 0 0 0 0 0 0 0 0 0 0 0 0 0 0 0 0 0 0 0 0 0 0 0 0 0 0 0 0 0
0 0 0 0 0 0 0 0 0 0 0 0 0 0 0 0 0 0 0 0 0 0 0 0 0 0 0 0 0 0 0 0 0 0 0 0 0 0 0 0 0 0 0 0
0 0 0 0 0 0 0 0 0 0 0 0 0 0 0 0 0 0 0 0 0 0 0 0 0 0 0 0 0 0 0 0 0 0 0 0 0 0 0 0 0 0 0 0
0 0 0 0 0 0 0 0 0 0 0 0 0 0 0 0 0 0 0 0 0 0 0 0 0 0 0 0 0 0 0 0 0 0 0 0 0 0 0 0 0 0 0 0
0 0 0 0 0 0 0 0 0 0 0 0 0 0 0 0 0 0 0 0 0 0 0 0 0 0 0 0 0 0 0 0 0 0 0 0 0 0 0 0 0 0 0 0
0 0 0 0 0 0 0 0 0 0 0 0 0 0 0 0 0 0 0 0 0 0 0 0 0 0 0 0 0 0 0 0 0 0 0 0 0 0 0 0 0 0 0 0
Wind_Speed
7 7 10 11 8 4 7 6 4 3 2 1 5 8 12 8 6 8 9 9 8 9 8 6 6 6 6 6 8 9 11 11 9 8 10 10 11 10 9 10 11 12 11 12
6 9 7 7 7 5 6 4 2 1 2 1 4 9 11 8 7 8 9 9 8 7 6 5 5 5 6 6 7 8 10 10 10 10 10 7 8 7 8 7 9 11 12 12
6 4 8 8 8 8 5 5 4 1 2 3 5 8 6 4 2 3 4 5 5 6 6 5 4 4 4 5 6 7 9 9 10 10 6 4 3 2 4 6 9 11 12 13
3 4 9 9 8 8 6 4 5 2 2 3 3 5 8 4 5 3 4 4 4 4 4 4 4 3 3 4 4 5 6 7 8 8 8 10 10 11 12 10 10 10 12 13
4 5 8 9 7 7 4 4 4 3 3 1 1 2 9 3 2 3 4 5 5 4 3 4 4 4 4 3 2 3 4 5 6 7 9 11 12 11 7 6 7 8 8 10
3 2 4 4 5 7 8 7 6 4 3 2 4 4 8 3 2 2 4 5 6 5 4 4 4 4 4 3 3 2 3 4 4 6 8 10 12 11 8 8 9 8 6 7
3 2 2 4 7 5 5 6 3 2 1 5 2 3 10 5 4 3 3 4 5 5 6 7 8 8 7 7 6 5 4 5 5 5 7 9 11 11 13 12 11 10 7 7
6 4 2 3 5 7 4 5 6 5 4 3 2 7 9 5 4 1 0 2 4 6 6 6 6 6 7 8 7 7 7 7 6 6 7 8 9 8 8 10 9 11 9 9
5 4 2 3 3 8 6 3 3 5 2 2 5 6 8 1 2 2 3 4 6 6 6 6 6 6 7 8 7 7 7 8 8 7 7 7 8 8 8 8 7 6 5 5
6 6 3 3 5 4 5 7 5 5 4 3 5 5 4 3 1 1 4 6 6 7 7 7 6 7 7 7 7 7 7 8 8 8 6 6 6 6 6 5 6 6 6 7
4 6 4 3 3 5 4 4 4 4 3 4 3 5 4 5 3 0 4 5 6 6 6 6 6 6 7 7 7 7 8 8 8 7 6 5 4 3 4 5 6 7 8 10
3 6 4 1 1 4 4 5 6 5 3 3 2 8 3 3 2 1 5 6 6 5 5 4 5 6 6 7 7 7 7 7 7 6 5 3 1 2 4 5 7 8 10 10
5 6 5 2 2 1 2 4 4 5 5 4 3 8 3 1 4 4 6 8 7 6 5 4 5 5 6 7 7 7 7 6 6 4 3 3 2 3 5 7 9 10 10 11
5 4 5 7 5 5 4 5 6 6 4 5 8 8 8 7 8 9 9 8 6 5 5 4 5 5 6 6 6 6 6 6 5 5 5 5 5 6 7 8 10 11 11 12
5 4 2 2 2 4 5 7 9 8 8 8 7 7 11 8 8 9 8 7 6 5 4 4 4 4 5 6 6 6 6 6 5 6 7 7 7 9 10 10 11 11 12 12
4 4 2 1 0 3 4 7 10 10 9 10 8 12 12 8 5 6 7 7 6 5 4 3 4 4 5 5 5 5 5 5 5 7 7 8 9 11 11 11 12 12 12 12
3 4 2 1 2 1 6 9 12 7 7 8 12 13 8 8 9 7 6 5 4 4 3 3 3 3 3 4 4 4 4 5 6 8 8 8 10 11 11 12 12 12 12 12
5 4 2 0 1 5 6 2 6 7 7 9 8 9 7 8 7 5 3 2 2 2 2 2 2 2 2 3 4 4 5 6 7 8 8 9 10 12 12 12 12 11 10 10
4 5 2 1 2 6 6 2 5 5 5 6 10 11 9 5 4 3 1 1 1 0 0 1 1 1 3 4 4 6 6 6 7 8 8 8 9 11 11 12 11 10 10 10
3 3 3 2 2 5 4 1 2 3 3 2 4 5 4 1 2 3 2 2 2 2 2 2 3 4 4 4 5 7 6 7 7 7 8 8 8 10 10 10 10 9 9 9
4 3 3 3 3 7 6 2 2 2 3 2 2 4 3 4 4 2 2 2 3 3 3 4 4 4 4 4 6 7 7 7 6 7 8 8 8 9 9 9 8 8 8 9
6 5 5 4 5 8 2 3 4 4 3 3 3 3 3 3 2 2 3 3 4 4 4 4 5 5 4 4 6 7 7 6 7 8 9 8 8 7 8 9 8 7 8 8
6 7 5 7 7 4 2 4 4 2 3 4 3 3 2 3 3 3 3 4 5 5 4 4 6 6 5 4 6 7 6 6 7 8 8 8 8 7 7 7 7 6 5 5
3 3 3 4 6 6 6 5 5 4 4 4 3 3 2 3 3 4 5 5 5 5 5 5 6 6 5 5 5 6 6 7 8 8 7 7 7 7 6 5 4 4 4 4
3 4 3 5 5 6 4 2 2 2 2 2 2 2 2 3 3 5 5 6 6 5 5 5 6 6 6 6 6 6 6 7 8 8 7 6 6 6 6 5 4 4 2 3
2 4 4 4 3 3 5 4 3 3 3 3 3 2 1 3 4 5 5 6 6 6 6 6 6 7 6 6 6 6 6 7 8 7 6 5 5 5 5 5 5 8 7 9
Wind_Direction
160 175 194 193 184 155 151 154 178 219 280 283 260 270 274 270 256 255 260 262 260 256 256 256 247 239 233 229 220 215 212 211 199 195 201 204 211 210 209 209 205 201 196 191
156 206 188 151 156 138 134 139 167 281 342 325 295 278 269 257 243 238 248 259 262 267 276 265 252 236 225 225 224 222 219 214 205 205 205 204 204 210 211 208 205 202 197 192
172 169 155 155 166 168 168 162 168 188 353 26 334 298 289 294 290 289 274 269 276 266 272 279 273 254 235 231 228 227 225 221 215 211 202 186 177 178 189 205 210 206 199 195
163 154 156 165 178 167 193 173 154 139 69 322 13 307 295 309 332 335 324 320 302 290 285 289 295 290 266 251 245 236 233 229 224 212 202 199 204 210 210 209 210 204 198 196
170 156 161 170 167 144 140 118 114 110 119 329 302 237 284 326 338 341 339 338 330 320 315 316 309 295 290 285 273 257 250 242 233 219 213 212 217 220 214 202 199 199 197 195
88 100 133 137 119 125 119 87 70 59 78 260 219 192 278 267 231 307 332 345 353 359 2 359 356 356 347 340 331 314 291 270 247 229 222 220 222 219 207 200 201 199 193 192
103 79 84 111 109 115 124 115 92 26 0 248 194 207 253 263 258 253 296 335 350 5 13 11 8 3 356 351 344 339 324 300 280 251 236 228 228 222 216 209 206 198 192 196
139 147 157 128 139 150 158 144 158 183 213 269 195 235 256 274 292 239 240 331 1 10 9 6 358 353 347 344 343 338 326 308 295 270 252 241 231 225 224 216 207 203 203 199
132 118 72 87 107 129 133 140 143 123 109 280 259 272 300 293 70 63 21 6 4 358 356 352 347 347 342 339 335 329 319 309 300 286 268 253 237 227 223 214 203 195 183 163
121 112 108 107 84 51 133 140 116 126 155 260 289 266 239 198 173 360 360 353 341 343 345 344 343 340 335 331 326 327 319 306 300 294 281 269 247 229 216 193 181 169 155 146
102 112 113 116 156 157 125 114 109 108 143 166 276 280 222 190 179 288 321 319 318 325 329 332 332 329 325 327 330 330 328 321 315 310 303 285 255 214 187 174 166 154 143 143
107 106 113 110 343 168 146 154 143 147 189 170 204 271 289 194 198 287 304 309 315 320 321 323 325 327 330 331 331 332 331 326 320 317 315 305 258 155 150 146 140 136 136 135
124 110 109 77 4 133 154 160 148 127 123 157 197 266 309 330 310 305 309 315 319 322 326 329 333 335 333 332 331 330 331 331 332 342 1 25 67 112 124 124 123 124 125 124
106 106 150 179 201 171 181 179 163 142 164 199 227 261 290 295 307 312 313 311 312 313 320 328 334 335 335 335 333 334 340 347 359 23 46 56 67 86 98 105 110 114 116 116
93 109 138 181 167 160 186 187 186 194 192 202 232 240 265 274 284 293 295 302 307 312 321 330 331 331 335 340 342 347 356 2 23 51 59 65 74 82 89 94 98 103 106 109
83 112 108 19 190 201 225 216 206 215 218 231 255 272 264 269 275 280 287 294 300 308 315 324 334 338 342 347 348 354 6 17 44 65 68 75 82 85 88 92 95 98 100 102
111 123 115 289 306 341 258 223 202 201 205 200 231 246 270 288 287 285 288 290 292 300 306 320 332 340 349 355 1 11 24 43 63 73 78 83 89 91 91 94 95 96 98 99
126 117 119 135 20 245 248 219 185 203 228 214 231 254 268 267 281 283 270 260 275 293 313 337 347 5 19 29 39 45 53 62 71 77 81 86 92 95 95 96 96 97 98 98
122 131 139 159 266 284 296 253 175 183 258 224 229 255 268 282 306 286 186 154 194 266 39 62 64 68 63 62 67 71 68 69 75 79 82 88 96 100 101 100 100 100 99 96
102 117 142 167 225 255 256 275 174 135 280 247 207 253 276 316 303 277 155 123 97 86 88 88 84 81 77 72 81 82 78 77 78 82 86 89 95 100 102 102 101 99 98 98
157 162 187 203 237 265 257 256 130 167 242 268 244 259 259 227 234 223 138 125 113 105 100 96 93 86 86 91 94 92 88 84 86 89 90 89 91 95 98 97 96 99 99 98
181 184 193 184 213 254 252 138 174 226 266 282 278 272 262 247 231 161 153 142 129 119 112 108 101 91 87 96 104 100 94 94 94 94 92 90 90 93 97 98 96 97 103 102
199 195 190 200 220 243 237 218 244 245 268 278 278 282 267 241 217 183 162 149 141 135 129 120 114 104 93 93 107 108 104 105 104 100 96 94 91 88 93 100 104 101 99 103
241 186 193 252 263 263 263 260 267 258 255 273 279 281 243 239 212 181 164 157 151 145 141 134 125 118 111 104 105 111 116 114 110 105 101 100 99 93 85 83 89 97 101 103
230 173 204 252 280 305 304 299 311 313 302 301 306 280 248 228 202 180 170 163 156 149 144 141 135 130 126 121 115 116 120 120 114 109 106 101 96 97 87 79 81 92 89 127
205 182 193 232 252 261 285 315 330 313 301 296 297 296 265 205 192 172 165 159 155 150 144 139 136 133 131 127 122 122 126 128 124 117 110 105 104 100 98 96 84 81 89 90